カタログに戻る

YAOGAN-33 03

運用中軍事SSO
NORAD 57797·PAYLOAD·🇨🇳 China

打ち上げ Sep 6, 2023 から Jiuquan Satellite Launch Center

Loading…

次のパス (今後24時間)

TLE

最新Source: Space-Track

元期: Sep 14, 2026, 15:18 UTC

1 57797U 23136A   26257.63801865  .00000289  00000-0  71715-4 0  9993
2 57797  98.1923 180.7392 0006405 270.8308  89.2158 14.58789051160976

AllMySatでYAOGAN-33 03をリアルタイム追跡

Download on the App Store